Flag for Poland Weather past 2 weeks in Tarnów, Poland

Now
20 °F

Cold.


Feels Like: 20 °F
Forecast: 20 / 32 °F
Wind: No wind

Location: Tarnow

Current Time: Feb 1, 2015 at 9:19:07 AM

Latest Report: Feb 1, 2015 at 8:00 AM


Visibility: 8 mi

Pressure: 29.32 "Hg

Humidity: 93%

Dew point: 19 °F

Location of TarnówLocation

Historic Weather in Tarnów — Graph

°F

Tarnów temperature yesterday

Maximum temperature yesterday: 36 °F (at 12:00 AM)
Minimum temperature yesterday: 28 °F (at 11:00 PM)
Average temperature yesterday: 31 °F

Past Weeks' High & Low Weather Summary

 TemperatureHumidityPressure
High55 °F (Jan 17, 1:00 PM)100% (Jan 21, 6:00 AM)30.29 "Hg (Jan 21, 6:00 AM)
Low20 °F (Feb 1, 8:00 AM)38% (Jan 17, 1:00 PM)28.76 "Hg (Jan 30, 11:00 PM)
Average35 °F89%29.84 "Hg
* Reported Jan 17 8:00 AM — Feb 1 8:00 AM, Tarnów, Weather by CustomWeather, © 2014

Note: Actual official high and low records may vary slightly from our data, if they occured in-between our weather recording intervals... More about our weather records

Advertising

Tarnów weather history for previous 24 hours

 ConditionsComfort  
Time TempWeatherWind HumidityBarometerVisibility
8:00 AM
Feb 1
20 °FCold.No wind93%29.32 "Hg8 mi
7:00 AM21 °FCold.No wind92%29.32 "Hg8 mi
6:00 AM24 °FCold.1 mph86%29.32 "Hg14 mi
5:00 AM27 °FChilly.2 mph83%29.29 "Hg19 mi
4:00 AM28 °FChilly.3 mph82%29.26 "Hg22 mi
3:00 AM29 °FChilly.3 mph81%29.26 "Hg19 mi
2:00 AM28 °FChilly.3 mph82%29.26 "Hg18 mi
1:00 AM27 °FChilly.1 mph85%29.26 "Hg7 mi
12:00 AM28 °FFog.2 mph84%29.23 "Hg6 mi
11:00 PM
Jan 31
28 °FChilly.2 mph83%29.23 "Hg7 mi
10:00 PM29 °FFog.2 mph84%29.21 "Hg5 mi
9:00 PM29 °FFog.1 mph83%29.21 "Hg4 mi
8:00 PM29 °FFog.1 mph89%29.18 "Hg4 mi
7:00 PM29 °FFog.1 mph86%29.18 "Hg4 mi
6:00 PM29 °FFog.2 mph85%29.18 "Hg3 mi
5:00 PM31 °FFog.1 mph84%29.15 "Hg5 mi
4:00 PM32 °FFog.1 mph82%29.12 "Hg4 mi
3:00 PM34 °FFog.1 mph86%29.09 "Hg4 mi
2:00 PM33 °FChilly.1 mph85%29.09 "Hg9 mi
1:00 PM32 °FChilly.2 mph88%29.06 "Hg6 mi
12:00 PM32 °FFog.2 mph89%29.03 "Hg6 mi
11:00 AM31 °FFog.2 mph90%29.00 "Hg4 mi
10:00 AM31 °FFog.1 mph93%29.00 "Hg2 mi
9:00 AM31 °FChilly.3 mph96%28.94 "Hg2 mi
Weather by CustomWeather, © 2014

See weather overviewHow to use our weather pages